Raton, NM

1:39 PM MDT on March 27, 2017 (GMT -0600)
Raton Municipal-Crews

Weather History for KRTN - March, 2014

Change the Weather History Date:

Thursday, March 20, 2014

  Actual Average (KTAD) Record (KTAD)
Temperature  
Mean Temperature 44 °F -  
Max Temperature 73 °F 58 °F 81 °F (2017)
Min Temperature 16 °F 26 °F -10 °F (1965)
Degree Days  
Heating Degree Days 21    
Moisture  
Dew Point -5 °F    
Average Humidity 23    
Maximum Humidity 59    
Minimum Humidity 4    
Precipitation  
Precipitation 0.00 in - - ()
Sea Level Pressure  
Sea Level Pressure 29.94 in    
Wind  
Wind Speed 9 mph (WSW)    
Max Wind Speed 33 mph    
Max Gust Speed 41 mph    
Visibility 10 miles    
Events      
Averages and records for this station are not official NWS values.
T = Trace of Precipitation, MM = Missing Value Source: NWS Daily Summary

Daily Weather History Graph

Daily Weather History Graph

Search for Another Location

Airport or City:

Trip Planner

Search our weather history database for the weather conditions in past years. The results will help you decide how hot, cold, wet, or windy it might be!

Date:

Astronomy

Mar. 20, 2014 Rise Set
Actual Time 7:01 AM MDT 7:09 PM MDT
Civil Twilight 6:35 AM MDT 7:35 PM MDT
Nautical Twilight 6:05 AM MDT 8:05 PM MDT
Astronomical Twilight 5:35 AM MDT 8:36 PM MDT
Moon 11:25 PM MDT (3/20) 9:15 AM MDT (3/20)
Length of Visible Light 13h 00m
Length of Day
12h 08m
Waning Gibbous, 83% of the Moon is Illuminated
Mar 20
Waning Gibbous
Mar 23
Last Quarter
Mar 30
New
Apr 7
First Quarter
Apr 15
Full

Hourly Weather History & Observations

Time (MDT) Temp. Windchill Dew Point Humidity Pressure Visibility Wind Dir Wind Speed Gust Speed Precip Events Conditions
12:53 AM 26.1 °F 18.4 °F 5.0 °F 41% 30.10 in 10.0 mi NNW 6.9 mph - N/A   Clear
1:53 AM 24.1 °F 17.0 °F 7.0 °F 48% 30.10 in 10.0 mi NE 5.8 mph - N/A   Clear
2:53 AM 21.9 °F 12.5 °F 6.1 °F 51% 30.09 in 10.0 mi ENE 8.1 mph - N/A   Clear
3:53 AM 19.0 °F 11.1 °F 3.9 °F 52% 30.06 in 10.0 mi NNE 5.8 mph - N/A   Clear
4:53 AM 16.0 °F 5.3 °F 3.9 °F 59% 30.07 in 10.0 mi ENE 8.1 mph - N/A   Clear
5:53 AM 17.1 °F 7.6 °F 3.0 °F 54% 30.08 in 10.0 mi ENE 6.9 mph - N/A   Clear
6:53 AM 19.0 °F 12.3 °F 1.9 °F 47% 30.10 in 10.0 mi NNE 4.6 mph - N/A   Clear
7:53 AM 19.9 °F 9.3 °F 1.9 °F 46% 30.13 in 10.0 mi NE 9.2 mph - N/A   Clear
8:53 AM 30.0 °F 22.4 °F 5.0 °F 35% 30.08 in 10.0 mi NE 8.1 mph - N/A   Clear
9:53 AM 43.0 °F 38.2 °F 1.0 °F 17% 30.02 in 10.0 mi ENE 8.1 mph - N/A   Clear
10:53 AM 50.0 °F - -6.0 °F 10% 30.02 in 10.0 mi Variable 4.6 mph - N/A   Clear
11:53 AM 57.0 °F - -6.0 °F 8% 29.96 in 10.0 mi Variable 5.8 mph - N/A   Clear
12:53 PM 64.9 °F - -9.0 °F 5% 29.88 in 10.0 mi South 13.8 mph 18.4 mph N/A   Clear
1:53 PM 70.0 °F - -18.9 °F 4% 29.80 in 10.0 mi SSW 18.4 mph 28.8 mph N/A   Clear
2:53 PM 72.0 °F - -22.0 °F 4% 29.77 in 10.0 mi SW 23.0 mph 28.8 mph N/A   Clear
3:53 PM 71.1 °F - -22.0 °F 4% 29.76 in 10.0 mi SW 33.4 mph 41.4 mph N/A   Clear
4:53 PM 69.1 °F - -15.0 °F 4% 29.79 in 10.0 mi WSW 13.8 mph 32.2 mph N/A   Clear
5:53 PM 64.9 °F - -11.0 °F 4% 29.80 in 10.0 mi SW 12.7 mph - N/A   Clear
6:53 PM 61.0 °F - -9.0 °F 6% 29.83 in 10.0 mi WSW 13.8 mph - N/A   Clear
7:53 PM 55.9 °F - -7.1 °F 7% 29.86 in 10.0 mi WSW 11.5 mph - N/A   Clear
8:53 PM 54.0 °F - -7.1 °F 8% 29.83 in 10.0 mi SW 11.5 mph 23.0 mph N/A   Clear
9:53 PM 48.9 °F - -7.1 °F 10% 29.81 in 10.0 mi West 10.4 mph - N/A   Clear
10:53 PM 52.0 °F - -6.0 °F 9% 29.76 in 10.0 mi WSW 17.3 mph - N/A   Clear
11:53 PM 46.0 °F 43.9 °F -7.1 °F 11% 29.75 in 10.0 mi South 4.6 mph - N/A   Clear